• In Austria
  • List of Countries
  • For 7 days
  • Water Temperature
  • Satellite Maps
  • Weather Map
  • News
  • Weather Widgets
  • user-avatar
    Login

    Hourly Weather Sliven

    Today, 21 May, Monday

    Time Temperature Precipitation Wind Pressure Humidity
    00:00 +14°C° 0 mm 1 mps 734 mmHg 90%
    01:00 +14°C° 0 mm 1 mps 734 mmHg 91%
    02:00 +14°C° 0 mm 1 mps 733 mmHg 89%
    03:00 +13°C° 0 mm 1 mps 734 mmHg 89%
    04:00 +13°C° 0 mm 1 mps 734 mmHg 89%
    05:00 +13°C° 0 mm 1 mps 734 mmHg 90%
    06:00 +15°C° 0 mm 1 mps 734 mmHg 84%
    07:00 +17°C° 0 mm 2 mps 734 mmHg 78%
    08:00 +18°C° 0 mm 2 mps 734 mmHg 72%
    09:00 +20°C° 0.1 mm 2 mps 734 mmHg 69%
    10:00 +21°C° 0.1 mm 3 mps 735 mmHg 66%
    11:00 +22°C° 0.1 mm 3 mps 735 mmHg 62%
    12:00 +22°C° 0.3 mm 4 mps 734 mmHg 63%
    13:00 +22°C° 0.3 mm 4 mps 734 mmHg 64%
    14:00 +22°C° 0.3 mm 4 mps 734 mmHg 65%
    15:00 +21°C° 0.3 mm 5 mps 734 mmHg 68%
    16:00 +21°C° 0.3 mm 5 mps 733 mmHg 72%
    17:00 +20°C° 0.3 mm 5 mps 733 mmHg 75%
    18:00 +19°C° 0 mm 4 mps 733 mmHg 81%
    19:00 +17°C° 0 mm 4 mps 733 mmHg 87%
    20:00 +14°C° 0 mm 3 mps 733 mmHg 93%
    21:00 +14°C° 0 mm 3 mps 733 mmHg 94%
    22:00 +14°C° 0 mm 2 mps 734 mmHg 94%
    23:00 +14°C° 0 mm 2 mps 734 mmHg 95%

    Tomorrow, 22 May, Tuesday

    Time Temperature Precipitation Wind Pressure Humidity
    00:00 +14°C° 0 mm 2 mps 734 mmHg 95%
    01:00 +13°C° 0 mm 2 mps 734 mmHg 95%
    02:00 +13°C° 0 mm 2 mps 734 mmHg 95%
    03:00 +13°C° 0 mm 2 mps 734 mmHg 95%
    04:00 +12°C° 0 mm 1 mps 734 mmHg 95%
    05:00 +12°C° 0 mm 1 mps 734 mmHg 96%
    06:00 +14°C° 0 mm 1 mps 734 mmHg 89%
    07:00 +15°C° 0 mm 1 mps 734 mmHg 83%
    08:00 +17°C° 0 mm 2 mps 735 mmHg 77%
    09:00 +19°C° 0 mm 2 mps 735 mmHg 71%
    10:00 +20°C° 0 mm 2 mps 735 mmHg 64%
    11:00 +22°C° 0 mm 3 mps 735 mmHg 58%
    12:00 +24°C° 0 mm 3 mps 735 mmHg 57%
    13:00 +24°C° 0 mm 3 mps 735 mmHg 56%
    14:00 +25°C° 0 mm 4 mps 735 mmHg 54%
    15:00 +23°C° 0 mm 4 mps 735 mmHg 57%
    16:00 +23°C° 0 mm 4 mps 735 mmHg 60%
    17:00 +22°C° 0 mm 4 mps 735 mmHg 64%
    18:00 +20°C° 0 mm 3 mps 735 mmHg 72%
    19:00 +18°C° 0 mm 3 mps 734 mmHg 80%
    20:00 +16°C° 0 mm 2 mps 734 mmHg 88%
    21:00 +15°C° 0 mm 2 mps 735 mmHg 89%
    22:00 +15°C° 0 mm 2 mps 735 mmHg 91%
    23:00 +14°C° 0 mm 2 mps 735 mmHg 92%

    Day after tomorrow, 23 May, Wednesday

    Time Temperature Precipitation Wind Pressure Humidity
    00:00 +13°C° 0 mm 1 mps 735 mmHg 92%
    01:00 +13°C° 0 mm 1 mps 735 mmHg 91%
    02:00 +13°C° 0 mm 1 mps 735 mmHg 91%
    03:00 +13°C° 0 mm 1 mps 735 mmHg 90%
    04:00 +12°C° 0 mm 1 mps 735 mmHg 90%
    05:00 +12°C° 0 mm 1 mps 735 mmHg 90%
    06:00 +14°C° 0 mm 1 mps 735 mmHg 83%
    07:00 +16°C° 0 mm 1 mps 735 mmHg 76%
    08:00 +20°C° 0 mm 1 mps 735 mmHg 69%
    09:00 +20°C° 0 mm 2 mps 735 mmHg 64%
    10:00 +23°C° 0 mm 2 mps 735 mmHg 58%
    11:00 +24°C° 0 mm 2 mps 736 mmHg 53%
    12:00 +25°C° 0 mm 2 mps 735 mmHg 52%
    13:00 +25°C° 0 mm 3 mps 735 mmHg 51%
    14:00 +26°C° 0 mm 3 mps 735 mmHg 50%
    15:00 +25°C° 0 mm 3 mps 735 mmHg 53%
    16:00 +25°C° 0 mm 3 mps 734 mmHg 57%
    17:00 +24°C° 0 mm 3 mps 734 mmHg 60%
    18:00 +21°C° 0 mm 3 mps 734 mmHg 68%
    19:00 +19°C° 0 mm 2 mps 734 mmHg 76%
    20:00 +17°C° 0 mm 2 mps 733 mmHg 85%
    21:00 +16°C° 0 mm 2 mps 733 mmHg 86%
    22:00 +16°C° 0 mm 1 mps 733 mmHg 88%
    23:00 +15°C° 0 mm 1 mps 733 mmHg 90%

    24 May, Thursday

    Time Temperature Precipitation Wind Pressure Humidity
    00:00 +14°C° 0 mm 1 mps 733 mmHg 90%
    01:00 +14°C° 0 mm 1 mps 733 mmHg 90%
    02:00 +14°C° 0 mm 1 mps 732 mmHg 89%
    03:00 +13°C° 0 mm 1 mps 732 mmHg 89%
    04:00 +13°C° 0 mm 1 mps 732 mmHg 88%
    05:00 +13°C° 0 mm 1 mps 732 mmHg 88%
    06:00 +15°C° 0 mm 1 mps 732 mmHg 79%
    07:00 +18°C° 0 mm 1 mps 732 mmHg 71%
    08:00 +21°C° 0 mm 1 mps 733 mmHg 63%
    09:00 +22°C° 0 mm 1 mps 733 mmHg 57%
    10:00 +23°C° 0 mm 2 mps 733 mmHg 52%
    11:00 +25°C° 0 mm 3 mps 733 mmHg 46%
    12:00 +25°C° 0 mm 3 mps 732 mmHg 46%
    13:00 +26°C° 0 mm 3 mps 732 mmHg 45%
    14:00 +26°C° 0 mm 3 mps 731 mmHg 45%
    15:00 +26°C° 0.1 mm 3 mps 731 mmHg 49%
    16:00 +26°C° 0.1 mm 3 mps 731 mmHg 53%
    17:00 +25°C° 0.1 mm 3 mps 731 mmHg 57%
    18:00 +22°C° 0.2 mm 3 mps 731 mmHg 65%
    19:00 +20°C° 0.2 mm 2 mps 730 mmHg 72%
    20:00 +19°C° 0.2 mm 1 mps 730 mmHg 80%
    21:00 +19°C° 0 mm 1 mps 730 mmHg 80%
    22:00 +18°C° 0 mm 1 mps 730 mmHg 81%
    23:00 +18°C° 0 mm 1 mps 730 mmHg 81%

    25 May, Friday

    Time Temperature Precipitation Wind Pressure Humidity
    00:00 +16°C° 0 mm 1 mps 730 mmHg 82%
    01:00 +16°C° 0 mm 2 mps 730 mmHg 83%
    02:00 +15°C° 0 mm 2 mps 730 mmHg 83%
    03:00 +15°C° 0 mm 2 mps 730 mmHg 84%
    04:00 +15°C° 0 mm 2 mps 730 mmHg 85%
    05:00 +14°C° 0 mm 2 mps 730 mmHg 85%
    06:00 +16°C° 0 mm 3 mps 730 mmHg 79%
    07:00 +18°C° 0 mm 3 mps 730 mmHg 73%
    08:00 +20°C° 0 mm 4 mps 730 mmHg 67%
    09:00 +21°C° 0.1 mm 5 mps 730 mmHg 64%
    10:00 +23°C° 0.1 mm 5 mps 730 mmHg 61%
    11:00 +24°C° 0.1 mm 6 mps 730 mmHg 58%
    12:00 +24°C° 0.7 mm 6 mps 730 mmHg 60%
    13:00 +24°C° 0.7 mm 6 mps 730 mmHg 63%
    14:00 +24°C° 0.7 mm 6 mps 730 mmHg 66%
    15:00 +23°C° 0.7 mm 6 mps 730 mmHg 70%
    16:00 +22°C° 0.7 mm 6 mps 730 mmHg 74%
    17:00 +21°C° 0.7 mm 5 mps 729 mmHg 77%
    18:00 +20°C° 0.3 mm 5 mps 729 mmHg 80%
    19:00 +19°C° 0.3 mm 4 mps 730 mmHg 83%
    20:00 +18°C° 0.3 mm 3 mps 730 mmHg 86%
    21:00 +18°C° 0.1 mm 3 mps 730 mmHg 87%
    22:00 +17°C° 0.1 mm 3 mps 730 mmHg 89%
    23:00 +17°C° 0.1 mm 3 mps 730 mmHg 90%

    26 May, Saturday

    Time Temperature Precipitation Wind Pressure Humidity
    00:00 +17°C° 0.1 mm 3 mps 730 mmHg 91%
    01:00 +17°C° 0.1 mm 3 mps 730 mmHg 92%
    02:00 +17°C° 0.1 mm 4 mps 730 mmHg 93%
    03:00 +16°C° 0.1 mm 3 mps 730 mmHg 93%
    04:00 +16°C° 0.1 mm 3 mps 731 mmHg 93%
    05:00 +16°C° 0.1 mm 3 mps 731 mmHg 93%
    06:00 +17°C° 0.2 mm 4 mps 732 mmHg 91%
    07:00 +18°C° 0.2 mm 4 mps 732 mmHg 89%
    08:00 +17°C° 0.2 mm 5 mps 733 mmHg 87%
    09:00 +17°C° 0.2 mm 5 mps 733 mmHg 87%
    10:00 +17°C° 0.2 mm 6 mps 734 mmHg 88%
    11:00 +17°C° 0.2 mm 6 mps 734 mmHg 88%
    12:00 +17°C° 0.1 mm 6 mps 735 mmHg 87%
    13:00 +16°C° 0.1 mm 6 mps 735 mmHg 86%
    14:00 +16°C° 0.1 mm 7 mps 735 mmHg 84%
    15:00 +16°C° 0 mm 7 mps 736 mmHg 81%
    16:00 +17°C° 0 mm 6 mps 736 mmHg 77%
    17:00 +17°C° 0 mm 6 mps 736 mmHg 74%
    18:00 +15°C° 0 mm 6 mps 737 mmHg 75%
    19:00 +14°C° 0 mm 5 mps 737 mmHg 76%
    20:00 +13°C° 0 mm 4 mps 737 mmHg 78%
    21:00 +12°C° 0 mm 4 mps 737 mmHg 79%
    22:00 +11°C° 0 mm 3 mps 738 mmHg 81%
    23:00 +10°C° 0 mm 3 mps 738 mmHg 83%
    Show more